Location: Klinovec
(50.3970°N, 12.9600°E)
Time: 03:21:56
(UTC+01:00)

N. Korean satellite - Pass Details

Date: 14 November 2019
Orbit: 455 x 507 km, 97.2° (Epoch: 13 December)

Event Time Altitude Azimuth Distance (km) Brightness Sun altitude
Rises 06:05:40 0° 14° (NNE) 2,626 10.3 -11.8°
Reaches altitude 10° 06:07:46 10° 15° (NNE) 1,736 9.4 -11.5°
Maximum altitude 06:11:31 78° 101° (ESE) 525 6.8 -10.9°
Drops below altitude 10° 06:15:13 10° 189° (S) 1,710 9.4 -10.4°
Sets 06:17:17 0° 191° (S) 2,584 10.3 -10.1°
